Location: Unspecified
(35.7250°N, 0.0000°E)
Time: 14:26:00
(UTC+00:00)

Explorer 7 - Pass Details

Date: 21 June 2019
Orbit: 485 x 680 km, 50.3° (Epoch: 16 July)

Event Time Altitude Azimuth Distance (km) Brightness Sun altitude
Rises 10:13:47 0° 274° (W) 2,793 10.2 63.6°
Reaches altitude 10° 10:16:29 10° 291° (WNW) 1,934 9.5 64.1°
Maximum altitude 10:19:50 20° 340° (NNW) 1,419 9.0 64.8°
Drops below altitude 10° 10:23:20 10° 29° (NNE) 2,028 9.9 65.4°
Sets 10:26:15 0° 45° (NE) 2,972 10.7 66.0°
